HIMAWARI-6 (MTSAT-1R)

Last updated on Jan. 13, 2016, 3:06 p.m. UTC

1 28622U 05006A   16013.11772539 -.00000232  00000-0  00000+0 0  9994
2 28622   0.7035  84.1012 0019529 203.5528 195.4639  0.98915055 39825
UTC
Height (km)
Latitude
Longitude
Inclination
Orbital Period
UTC large
Height (km)
Speed (km/s)
/
Latitude / Longitude
Inclination (degrees)
Orbital Period (minutes)
Azimuth
Elevation
Range (km)
Doppler Factor
iOS Compass Heading
iOS Angle

Next 30 passes for location: Hong Kong

Rise time Rise Azimuth (degrees) Set time Set Azimuth (degrees) Duration Max altitude (degrees)

No matching passes for this satellites